Weather History for KCRS - December, 2013

Change the Weather History Date:

Wednesday, December 18, 2013

  Actual Average (KACT) Record (KACT)
Temperature  
Mean Temperature 54 °F 48 °F  
Max Temperature 69 °F 58 °F 83 °F (2012)
Min Temperature 39 °F 37 °F 21 °F (1983)
Degree Days  
Heating Degree Days 11 18  
Month to date heating degree days 286  
Since 1 July heating degree days 614  
Cooling Degree Days 0 0  
Month to date cooling degree days 0  
Year to date cooling degree days 2792  
Growing Degree Days 4 (Base 50)    
Moisture  
Dew Point 41 °F    
Average Humidity 66    
Maximum Humidity 89    
Minimum Humidity 38    
Precipitation  
Precipitation 0.00 in 0.09 in 1.31 in (1952)
Month to date precipitation 1.60  
Year to date precipitation 33.54  
Snow  
Snow 0.00 in 0.00 in T in (1983)
Month to date snowfall 0.0  
Since 1 July snowfall 0.1  
Snow Depth -    
Sea Level Pressure  
Sea Level Pressure 30.19 in    
Wind  
Wind Speed 7 mph (South)    
Max Wind Speed 17 mph    
Max Gust Speed -    
Visibility 10 miles    
Events      
T = Trace of Precipitation, MM = Missing Value Source: NWS Daily Summary

Daily Weather History Graph

Daily Weather History Graph

Search for Another Location

Airport or City:

Trip Planner

Search our weather history database for the weather conditions in past years. The results will help you decide how hot, cold, wet, or windy it might be!

Date:

Astronomy

Dec. 18, 2013 Rise Set
Actual Time 7:20 AM CST 5:24 PM CST
Civil Twilight 6:53 AM CST 5:51 PM CST
Nautical Twilight 6:23 AM CST 6:21 PM CST
Astronomical Twilight 5:53 AM CST 6:51 PM CST
Moon 6:52 PM CST (12/18) 8:05 AM CST (12/18)
Length of Visible Light 10h 57m
Length of Day
10h 03m
Full, 98% of the Moon is Illuminated
Dec 18
Full
Dec 25
Last Quarter
Jan 1
New
Jan 7
First Quarter
Jan 15
Full

Hourly Weather History & Observations

Time (CST) Temp. Windchill Dew Point Humidity Pressure Visibility Wind Dir Wind Speed Gust Speed Precip Events Conditions
12:53 AM 44.1 °F 40.8 °F 37.9 °F 79% 30.27 in 10.0 mi SSW 5.8 mph - N/A   Clear
1:53 AM 44.1 °F - 37.0 °F 76% 30.26 in 10.0 mi Calm Calm - N/A   Clear
2:53 AM 39.9 °F - 36.0 °F 86% 30.26 in 10.0 mi Calm Calm - N/A   Clear
3:53 AM 41.0 °F 39.0 °F 36.0 °F 82% 30.26 in 10.0 mi SSW 3.5 mph - N/A   Clear
4:53 AM 41.0 °F 38.0 °F 37.0 °F 86% 30.26 in 10.0 mi SSW 4.6 mph - N/A   Clear
5:53 AM 41.0 °F 38.0 °F 37.0 °F 86% 30.27 in 10.0 mi South 4.6 mph - N/A   Clear
6:53 AM 39.0 °F 35.7 °F 36.0 °F 89% 30.27 in 9.0 mi SE 4.6 mph - N/A   Clear
7:53 AM 39.9 °F 36.7 °F 37.0 °F 89% 30.28 in 10.0 mi SSE 4.6 mph - N/A   Clear
8:53 AM 46.9 °F - 42.1 °F 83% 30.29 in 10.0 mi SSE 6.9 mph - N/A   Clear
9:53 AM 54.0 °F - 43.0 °F 66% 30.29 in 10.0 mi South 5.8 mph - N/A   Clear
10:53 AM 61.0 °F - 46.0 °F 58% 30.28 in 10.0 mi South 6.9 mph - N/A   Clear
11:53 AM 66.9 °F - 45.0 °F 45% 30.24 in 10.0 mi SSW 11.5 mph - N/A   Clear
12:53 PM 69.1 °F - 43.0 °F 39% 30.20 in 10.0 mi South 11.5 mph - N/A   Clear
1:53 PM 68.0 °F - 42.1 °F 39% 30.16 in 10.0 mi SSW 17.3 mph - N/A   Clear
2:53 PM 69.1 °F - 42.1 °F 38% 30.13 in 10.0 mi South 12.7 mph - N/A   Clear
3:53 PM 66.9 °F - 41.0 °F 39% 30.12 in 10.0 mi South 11.5 mph - N/A   Clear
4:53 PM 64.0 °F - 42.1 °F 45% 30.10 in 10.0 mi SSE 10.4 mph - N/A   Clear
5:53 PM 57.9 °F - 42.1 °F 56% 30.10 in 10.0 mi South 9.2 mph - N/A   Clear
6:53 PM 55.0 °F - 41.0 °F 59% 30.10 in 10.0 mi SSE 9.2 mph - N/A   Clear
7:53 PM 54.0 °F - 41.0 °F 62% 30.09 in 10.0 mi SSE 10.4 mph - N/A   Clear
8:53 PM 55.9 °F - 43.0 °F 62% 30.08 in 10.0 mi South 11.5 mph - N/A   Clear
9:53 PM 55.0 °F - 44.1 °F 67% 30.08 in 10.0 mi South 12.7 mph - N/A   Clear
10:53 PM 55.9 °F - 48.0 °F 75% 30.07 in 10.0 mi South 17.3 mph - N/A   Clear
11:53 PM 55.9 °F - 51.1 °F 84% 30.06 in 10.0 mi South 17.3 mph - N/A   Clear